Location: Home
(51.5204°N, 2.5456°W)
Time: 02:53:41
(UTC+00:00)

XW-2F - Visible Passes

Search period start: 16 December 2019 00:00
Search period end: 26 December 2019 00:00
Orbit: 504 x 522 km, 97.5° (Epoch: 15 December)

Date Brightness Start Highest point End Pass type
(mag) Time Alt. Az. Time Alt. Az. Time Alt. Az.
16 Dec ? 05:32:26 10° NE 05:35:27 22° E 05:38:26 10° SE visible
16 Dec ? 07:06:02 10° N 07:09:36 39° WNW 07:13:09 10° SW visible
16 Dec ? 17:50:48 10° SSW 17:54:20 38° W 17:57:55 10° NNW visible
17 Dec ? 05:17:20 10° NE 05:19:40 15° E 05:22:00 10° SE visible
17 Dec ? 06:50:17 10° N 06:54:02 56° WNW 06:57:46 10° SSW visible
17 Dec ? 17:34:56 10° S 17:38:38 56° W 17:42:25 10° NNW visible
18 Dec ? 05:02:54 10° ENE 05:03:51 11° E 05:04:49 10° E visible
18 Dec ? 06:34:35 10° NNE 06:38:26 83° WNW 06:42:14 10° SSW visible
18 Dec ? 17:19:12 10° SSE 17:22:59 83° WSW 17:26:50 10° NNW visible
19 Dec ? 06:18:59 10° NNE 06:22:48 67° ESE 06:26:34 10° S visible
19 Dec ? 17:03:37 10° SSE 17:07:22 67° ENE 17:11:10 10° N visible
19 Dec ? 18:39:58 10° WSW 18:41:49 13° W 18:43:42 10° WNW visible
20 Dec ? 06:03:26 10° NNE 06:07:07 45° E 06:10:45 10° S visible
20 Dec ? 16:48:09 10° SE 16:51:47 45° ENE 16:55:27 10° N visible
20 Dec ? 18:23:18 10° SW 18:26:02 19° W 18:28:47 10° NW visible
21 Dec ? 05:47:59 10° NNE 05:51:24 31° E 05:54:48 10° SSE visible
21 Dec ? 07:22:05 10° N 07:25:21 28° WNW 07:28:36 10° SW visible
21 Dec ? 18:07:02 10° SSW 18:10:15 26° W 18:13:32 10° NW visible
22 Dec ? 05:32:39 10° NE 05:35:40 22° E 05:38:38 10° SE visible
22 Dec ? 07:06:15 10° N 07:09:49 38° WNW 07:13:21 10° SW visible
22 Dec ? 17:51:00 10° SSW 17:54:32 38° W 17:58:08 10° NNW visible
23 Dec ? 05:17:32 10° NE 05:19:52 15° E 05:22:11 10° SE visible
23 Dec ? 06:50:30 10° N 06:54:14 56° WNW 06:57:56 10° SSW visible
23 Dec ? 17:35:07 10° S 17:38:51 56° W 17:42:37 10° NNW visible
24 Dec ? 05:03:06 10° ENE 05:04:03 11° E 05:05:00 10° E visible
24 Dec ? 06:34:48 10° NNE 06:38:38 83° WNW 06:42:24 10° SSW visible
24 Dec ? 17:19:23 10° SSE 17:23:11 83° WSW 17:27:01 10° NNW visible
25 Dec ? 06:19:10 10° NNE 06:22:59 67° ESE 06:26:44 10° S visible
25 Dec ? 17:03:47 10° SSE 17:07:33 67° ENE 17:11:22 10° N visible
25 Dec ? 18:40:08 10° WSW 18:42:00 13° W 18:43:53 10° WNW visible
